Tracking 28790 objects as of 18-Apr-2024
HD Live streaming from Space Station
objects crossing your sky now

WESTFORD NEEDLES

Track WESTFORD NEEDLES now!
10-day predictions
WESTFORD NEEDLES is classified as:


NORAD ID: 19946
Int'l Code: 1963-014EU
Perigee: 3,204.7 km
Apogee: 4,047.3 km
Inclination: 87.2 °
Period: 165.8 minutes
Semi major axis: 9996 km
RCS: 0.1748 m2 (medium)
Launch date: May 9, 1963
Source: United States (US)
Launch site: AIR FORCE WESTERN TEST RANGE (AFWTR)
Your satellite tracking list
Your tracking list is empty




NASA's NSSDC Master Catalog

Two Line Element Set (TLE):
1 19946U 63014EU  24109.25385994 -.00000432  00000-0 -18027+0 0  9992
2 19946  87.1591  42.9753 0421412 341.0153 181.5079  8.68558728119990
Source of the keplerian elements: AFSPC